LAP1325 SGAS-SCEL

Flight info

Callsign LAP1325
Flight time N/A
Altitude 34000
Route ARPAS ARPAS UZ124 SIS UL531 CBA UZ105 UMKAL UMKAL7C
Aircraft A320/M-SDE3FGHIRWY/LB1

Departure

Time N/A
Airport Silvio Pettirossi International Airport (SGAS)

Arrival

Time 2026-05-03 22:02
Airport Comodoro Arturo Merino Benítez International Airport (SCEL)
Time Latitude Longitude Altitude Speed Heading
2026-05-03 20:15 -28.88886 -60.73496 34076 ft 376 kts 228°
2026-05-03 20:15 -28.92531 -60.77788 34077 ft 376 kts 228°
2026-05-03 20:16 -28.96170 -60.82083 34098 ft 376 kts 228°
2026-05-03 20:16 -28.99808 -60.86375 34091 ft 376 kts 227°
2026-05-03 20:17 -29.03447 -60.90664 34081 ft 376 kts 228°
2026-05-03 20:17 -29.07077 -60.94962 34081 ft 376 kts 228°
2026-05-03 20:18 -29.10706 -60.99254 34070 ft 376 kts 228°
2026-05-03 20:18 -29.14320 -61.03572 34071 ft 376 kts 228°
2026-05-03 20:19 -29.17910 -61.07915 34061 ft 376 kts 229°
2026-05-03 20:19 -29.21501 -61.12262 34059 ft 376 kts 228°
2026-05-03 20:20 -29.25100 -61.16606 34065 ft 376 kts 228°
2026-05-03 20:20 -29.28086 -61.20219 34066 ft 376 kts 228°
2026-05-03 20:21 -29.31684 -61.24570 34084 ft 376 kts 228°
2026-05-03 20:21 -29.35285 -61.28931 34079 ft 377 kts 228°
2026-05-03 20:22 -29.38883 -61.33297 34074 ft 377 kts 228°
2026-05-03 20:22 -29.42487 -61.37665 34066 ft 377 kts 228°
2026-05-03 20:23 -29.46085 -61.42037 34070 ft 377 kts 228°
2026-05-03 20:23 -29.49683 -61.46418 33991 ft 380 kts 228°
2026-05-03 20:24 -29.53307 -61.50837 34064 ft 379 kts 228°
2026-05-03 20:24 -29.56912 -61.55227 34069 ft 377 kts 229°
2026-05-03 20:25 -29.60511 -61.59621 34021 ft 381 kts 228°
2026-05-03 20:25 -29.64139 -61.64050 34078 ft 378 kts 228°
2026-05-03 20:26 -29.67743 -61.68449 34076 ft 378 kts 228°
2026-05-03 20:26 -29.71340 -61.72853 34075 ft 378 kts 228°
2026-05-03 20:27 -29.74929 -61.77263 34072 ft 378 kts 228°
2026-05-03 20:27 -29.78538 -61.81702 34071 ft 377 kts 228°
2026-05-03 20:28 -29.82126 -61.86113 34068 ft 377 kts 228°
2026-05-03 20:28 -29.85712 -61.90519 34065 ft 377 kts 228°
2026-05-03 20:29 -29.89063 -61.95147 34054 ft 376 kts 234°
2026-05-03 20:29 -29.92197 -61.99973 34054 ft 376 kts 234°
2026-05-03 20:30 -29.95330 -62.04803 34049 ft 376 kts 234°
2026-05-03 20:30 -29.98464 -62.09629 34051 ft 376 kts 234°
2026-05-03 20:31 -30.01594 -62.14457 34075 ft 376 kts 234°
2026-05-03 20:31 -30.04725 -62.19292 34053 ft 376 kts 233°
2026-05-03 20:32 -30.07861 -62.24136 34038 ft 377 kts 234°
2026-05-03 20:32 -30.10998 -62.28980 34040 ft 377 kts 234°
2026-05-03 20:33 -30.14128 -62.33841 34042 ft 377 kts 234°
2026-05-03 20:33 -30.17259 -62.38703 34044 ft 377 kts 234°
2026-05-03 20:34 -30.20390 -62.43567 34043 ft 377 kts 234°
2026-05-03 20:34 -30.23516 -62.48439 34044 ft 377 kts 234°
2026-05-03 20:35 -30.26648 -62.53309 34033 ft 377 kts 234°
2026-05-03 20:35 -30.29777 -62.58185 34038 ft 377 kts 234°
2026-05-03 20:36 -30.32906 -62.63061 34040 ft 377 kts 234°
2026-05-03 20:36 -30.36029 -62.67948 34041 ft 377 kts 234°
2026-05-03 20:37 -30.39149 -62.72836 34044 ft 377 kts 235°
2026-05-03 20:37 -30.42257 -62.77738 34062 ft 377 kts 235°
2026-05-03 20:38 -30.45363 -62.82640 34050 ft 377 kts 235°
2026-05-03 20:38 -30.48472 -62.87543 34040 ft 377 kts 235°
2026-05-03 20:39 -30.51571 -62.92450 34038 ft 377 kts 235°
2026-05-03 20:39 -30.54676 -62.97362 34040 ft 377 kts 235°
2026-05-03 20:40 -30.57778 -63.02276 34043 ft 378 kts 235°
2026-05-03 20:40 -30.60884 -63.07202 34045 ft 378 kts 235°
2026-05-03 20:41 -30.63988 -63.12125 34047 ft 378 kts 235°
2026-05-03 20:41 -30.67087 -63.17050 34043 ft 377 kts 236°
2026-05-03 20:42 -30.70180 -63.21975 34040 ft 377 kts 236°
2026-05-03 20:42 -30.73271 -63.26896 34036 ft 377 kts 236°
2026-05-03 20:43 -30.76353 -63.31823 34032 ft 377 kts 236°
2026-05-03 20:43 -30.79452 -63.36734 34017 ft 377 kts 230°
2026-05-03 20:44 -30.82664 -63.41552 33993 ft 377 kts 234°
2026-05-03 20:44 -30.85548 -63.46637 34021 ft 377 kts 238°
2026-05-03 20:45 -30.88498 -63.51680 34018 ft 377 kts 237°
2026-05-03 20:45 -30.91532 -63.56655 34023 ft 377 kts 236°
2026-05-03 20:46 -30.94620 -63.61588 34022 ft 377 kts 236°
2026-05-03 20:46 -30.97736 -63.66494 34019 ft 376 kts 236°
2026-05-03 20:47 -31.00854 -63.71442 34019 ft 376 kts 236°
2026-05-03 20:47 -31.03938 -63.76370 34017 ft 376 kts 236°
2026-05-03 20:48 -31.07018 -63.81297 34014 ft 376 kts 236°
2026-05-03 20:48 -31.10099 -63.86222 34013 ft 376 kts 236°
2026-05-03 20:49 -31.13175 -63.91149 34004 ft 376 kts 236°
2026-05-03 20:49 -31.16246 -63.96084 34001 ft 375 kts 236°
2026-05-03 20:50 -31.19318 -64.01012 33995 ft 375 kts 236°
2026-05-03 20:50 -31.22391 -64.05949 34000 ft 375 kts 236°
2026-05-03 20:51 -31.25457 -64.10882 34001 ft 375 kts 236°
2026-05-03 20:51 -31.28516 -64.15817 34001 ft 375 kts 236°
2026-05-03 20:52 -31.31442 -64.20836 33996 ft 373 kts 244°
2026-05-03 20:52 -31.33466 -64.26406 33995 ft 372 kts 248°
2026-05-03 20:53 -31.35444 -64.32000 33990 ft 372 kts 248°
2026-05-03 20:53 -31.37424 -64.37594 33990 ft 372 kts 248°
2026-05-03 20:54 -31.39405 -64.43188 33984 ft 372 kts 248°
2026-05-03 20:54 -31.42361 -64.51590 33985 ft 372 kts 248°
2026-05-03 20:55 -31.44322 -64.57187 33980 ft 371 kts 248°
2026-05-03 20:55 -31.46279 -64.62780 33973 ft 371 kts 248°
2026-05-03 20:56 -31.48242 -64.68373 33966 ft 371 kts 248°
2026-05-03 20:56 -31.50197 -64.73964 33965 ft 371 kts 248°
2026-05-03 20:57 -31.52144 -64.79558 33959 ft 371 kts 248°
2026-05-03 20:57 -31.53762 -64.84205 33961 ft 371 kts 248°
2026-05-03 20:58 -31.55707 -64.89804 33961 ft 371 kts 248°
2026-05-03 20:58 -31.57656 -64.95404 33962 ft 371 kts 248°
2026-05-03 20:59 -31.59601 -65.01009 33962 ft 371 kts 248°
2026-05-03 20:59 -31.61539 -65.06609 33962 ft 370 kts 249°
2026-05-03 21:00 -31.63155 -65.11298 33950 ft 370 kts 249°
2026-05-03 21:00 -31.65403 -65.17810 33953 ft 370 kts 248°
2026-05-03 21:01 -31.67339 -65.23416 33956 ft 371 kts 249°
2026-05-03 21:01 -31.69275 -65.29032 33942 ft 371 kts 249°
2026-05-03 21:02 -31.71199 -65.34648 33947 ft 370 kts 249°
2026-05-03 21:02 -31.73120 -65.40258 33954 ft 370 kts 249°
2026-05-03 21:03 -31.75037 -65.45860 33947 ft 370 kts 249°
2026-05-03 21:03 -31.76953 -65.51468 33935 ft 370 kts 249°
2026-05-03 21:04 -31.78883 -65.57109 33929 ft 370 kts 249°
2026-05-03 21:04 -31.80790 -65.62714 33923 ft 370 kts 249°
2026-05-03 21:05 -31.82698 -65.68331 33917 ft 370 kts 249°
2026-05-03 21:05 -31.84609 -65.73953 33915 ft 370 kts 249°
2026-05-03 21:06 -31.86515 -65.79583 33915 ft 371 kts 249°
2026-05-03 21:06 -31.88418 -65.85219 33915 ft 371 kts 249°
2026-05-03 21:07 -31.90318 -65.90858 33917 ft 371 kts 249°
2026-05-03 21:07 -31.92217 -65.96502 33903 ft 371 kts 250°
2026-05-03 21:08 -31.94122 -66.02155 33900 ft 372 kts 249°
2026-05-03 21:08 -31.96023 -66.07818 33904 ft 372 kts 250°
2026-05-03 21:09 -31.97918 -66.13492 33904 ft 372 kts 250°
2026-05-03 21:09 -31.99814 -66.19174 33906 ft 373 kts 250°
2026-05-03 21:10 -32.01710 -66.24857 33910 ft 373 kts 250°
2026-05-03 21:10 -32.03600 -66.30544 33897 ft 373 kts 250°
2026-05-03 21:11 -32.05491 -66.36236 33899 ft 373 kts 250°
2026-05-03 21:11 -32.07383 -66.41937 33893 ft 373 kts 250°
2026-05-03 21:12 -32.09270 -66.47644 33897 ft 373 kts 250°
2026-05-03 21:12 -32.10976 -66.53417 33889 ft 373 kts 255°
2026-05-03 21:13 -32.12375 -66.59304 33880 ft 373 kts 255°
2026-05-03 21:13 -32.13781 -66.65196 33880 ft 373 kts 255°
2026-05-03 21:14 -32.15184 -66.71094 33879 ft 374 kts 255°
2026-05-03 21:14 -32.16583 -66.77000 33880 ft 374 kts 255°
2026-05-03 21:15 -32.17984 -66.82909 33882 ft 374 kts 255°
2026-05-03 21:15 -32.19380 -66.88825 33885 ft 374 kts 255°
2026-05-03 21:16 -32.20765 -66.94746 33882 ft 374 kts 255°
2026-05-03 21:16 -32.22157 -67.00665 33883 ft 374 kts 255°
2026-05-03 21:17 -32.23317 -67.05588 33884 ft 374 kts 255°
2026-05-03 21:17 -32.24939 -67.12521 33887 ft 375 kts 255°
2026-05-03 21:18 -32.26323 -67.18452 33886 ft 375 kts 255°
2026-05-03 21:18 -32.27709 -67.24390 33877 ft 375 kts 255°
2026-05-03 21:19 -32.29088 -67.30331 33870 ft 375 kts 255°
2026-05-03 21:19 -32.30466 -67.36282 33873 ft 375 kts 255°
2026-05-03 21:20 -32.31840 -67.42237 33877 ft 376 kts 255°
2026-05-03 21:20 -32.33215 -67.48198 33880 ft 376 kts 255°
2026-05-03 21:21 -32.34586 -67.54160 33885 ft 376 kts 255°
2026-05-03 21:21 -32.35947 -67.60096 33887 ft 376 kts 255°
2026-05-03 21:22 -32.37307 -67.66060 33887 ft 375 kts 255°
2026-05-03 21:22 -32.38671 -67.72023 33885 ft 375 kts 255°
2026-05-03 21:23 -32.40030 -67.77986 33887 ft 375 kts 255°
2026-05-03 21:23 -32.41382 -67.83945 33885 ft 375 kts 255°
2026-05-03 21:24 -32.42739 -67.89900 33882 ft 375 kts 255°
2026-05-03 21:24 -32.44090 -67.95860 33879 ft 375 kts 255°
2026-05-03 21:25 -32.45436 -68.01815 33877 ft 374 kts 255°
2026-05-03 21:25 -32.46780 -68.07770 33874 ft 374 kts 255°
2026-05-03 21:26 -32.48110 -68.13727 33872 ft 374 kts 255°
2026-05-03 21:26 -32.49446 -68.19685 33871 ft 374 kts 255°
2026-05-03 21:27 -32.50787 -68.25641 33868 ft 374 kts 255°
2026-05-03 21:27 -32.52113 -68.31600 33868 ft 374 kts 256°
2026-05-03 21:28 -32.53428 -68.37560 33869 ft 374 kts 255°
2026-05-03 21:28 -32.54761 -68.43550 33867 ft 373 kts 255°
2026-05-03 21:29 -32.56075 -68.49500 33868 ft 373 kts 256°
2026-05-03 21:29 -32.57391 -68.55453 33874 ft 373 kts 256°
2026-05-03 21:30 -32.58707 -68.61415 33883 ft 374 kts 256°
2026-05-03 21:30 -32.60025 -68.67388 33894 ft 374 kts 256°
2026-05-03 21:31 -32.61338 -68.73366 33905 ft 375 kts 256°
2026-05-03 21:31 -32.62634 -68.79349 33933 ft 375 kts 256°
2026-05-03 21:32 -32.63937 -68.85335 33926 ft 375 kts 256°
2026-05-03 21:32 -32.65249 -68.91337 33897 ft 377 kts 256°
2026-05-03 21:33 -32.66562 -68.97371 33888 ft 378 kts 256°
2026-05-03 21:33 -32.67872 -69.03421 33881 ft 379 kts 256°
2026-05-03 21:34 -32.68962 -69.08470 33879 ft 380 kts 256°
2026-05-03 21:34 -32.70267 -69.14548 33876 ft 380 kts 256°
2026-05-03 21:35 -32.71583 -69.20633 33863 ft 381 kts 256°
2026-05-03 21:35 -32.72900 -69.26735 33674 ft 381 kts 256°
2026-05-03 21:36 -32.73548 -69.29765 33409 ft 378 kts 256°
2026-05-03 21:36 -32.74191 -69.32785 33146 ft 376 kts 256°
2026-05-03 21:36 -32.74833 -69.35794 32883 ft 375 kts 256°
2026-05-03 21:36 -32.75469 -69.38790 32617 ft 373 kts 256°
2026-05-03 21:37 -32.76102 -69.41776 32429 ft 373 kts 256°
2026-05-03 21:37 -32.76732 -69.44754 32175 ft 371 kts 256°
2026-05-03 21:37 -32.77361 -69.47716 31916 ft 369 kts 256°
2026-05-03 21:37 -32.77990 -69.50664 31667 ft 367 kts 256°
2026-05-03 21:38 -32.79228 -69.56479 31397 ft 356 kts 256°
2026-05-03 21:38 -32.79827 -69.59300 31141 ft 348 kts 256°
2026-05-03 21:38 -32.80409 -69.62059 30903 ft 340 kts 256°
2026-05-03 21:39 -32.80973 -69.64751 30659 ft 333 kts 256°
2026-05-03 21:39 -32.81531 -69.67415 30491 ft 331 kts 256°
2026-05-03 21:39 -32.82085 -69.70050 30253 ft 325 kts 256°
2026-05-03 21:39 -32.82629 -69.72633 29870 ft 319 kts 256°
2026-05-03 21:40 -32.83161 -69.75161 29494 ft 312 kts 256°
2026-05-03 21:40 -32.83683 -69.77639 29127 ft 307 kts 256°
2026-05-03 21:40 -32.84190 -69.80068 28832 ft 299 kts 256°
2026-05-03 21:40 -32.84689 -69.82451 28492 ft 295 kts 256°
2026-05-03 21:41 -32.85181 -69.84804 28162 ft 292 kts 257°
2026-05-03 21:41 -32.85669 -69.87142 27871 ft 290 kts 257°
2026-05-03 21:41 -32.86152 -69.89458 27512 ft 286 kts 257°
2026-05-03 21:41 -32.86627 -69.91737 27186 ft 282 kts 258°
2026-05-03 21:42 -32.87095 -69.93991 26894 ft 280 kts 257°
2026-05-03 21:42 -32.87560 -69.96238 26588 ft 279 kts 257°
2026-05-03 21:42 -32.88005 -69.98477 26260 ft 277 kts 261°
2026-05-03 21:42 -32.88196 -70.00754 25932 ft 277 kts 269°
2026-05-03 21:43 -32.88069 -70.03049 25564 ft 279 kts 274°
2026-05-03 21:43 -32.87855 -70.05341 25176 ft 277 kts 274°
2026-05-03 21:43 -32.87646 -70.07617 24801 ft 277 kts 274°
2026-05-03 21:43 -32.87439 -70.09882 24426 ft 275 kts 274°
2026-05-03 21:44 -32.87229 -70.12139 24043 ft 274 kts 274°
2026-05-03 21:44 -32.87020 -70.14393 23632 ft 275 kts 275°
2026-05-03 21:44 -32.86811 -70.16658 23193 ft 274 kts 275°
2026-05-03 21:44 -32.86605 -70.18897 22801 ft 271 kts 275°
2026-05-03 21:45 -32.86402 -70.21114 22362 ft 268 kts 275°
2026-05-03 21:45 -32.86200 -70.23313 22007 ft 268 kts 275°
2026-05-03 21:45 -32.85995 -70.25512 21639 ft 267 kts 275°
2026-05-03 21:45 -32.85789 -70.27715 21258 ft 268 kts 275°
2026-05-03 21:46 -32.85581 -70.29945 20886 ft 281 kts 275°
2026-05-03 21:46 -32.85365 -70.32304 20480 ft 290 kts 275°
2026-05-03 21:46 -32.85143 -70.34694 20033 ft 292 kts 275°
2026-05-03 21:46 -32.84921 -70.37095 19627 ft 292 kts 275°
2026-05-03 21:47 -32.84869 -70.37654 19531 ft 292 kts 275°
2026-05-03 21:49 -32.84774 -70.38647 19351 ft 293 kts 276°
2026-05-03 21:49 -32.84542 -70.41058 18957 ft 295 kts 276°
2026-05-03 21:49 -32.84311 -70.43483 18549 ft 295 kts 276°
2026-05-03 21:50 -32.84081 -70.45912 18111 ft 296 kts 276°
2026-05-03 21:50 -32.83853 -70.48347 17659 ft 296 kts 276°
2026-05-03 21:50 -32.83626 -70.50776 17255 ft 296 kts 277°
2026-05-03 21:50 -32.83398 -70.53207 16801 ft 297 kts 277°
2026-05-03 21:51 -32.83166 -70.55660 16386 ft 297 kts 277°
2026-05-03 21:51 -32.82936 -70.58070 16169 ft 291 kts 277°
2026-05-03 21:51 -32.82707 -70.60448 15846 ft 289 kts 277°
2026-05-03 21:51 -32.82481 -70.62816 15466 ft 288 kts 277°
2026-05-03 21:52 -32.82255 -70.65186 15076 ft 289 kts 278°
2026-05-03 21:52 -32.82162 -70.67587 14622 ft 294 kts 266°
2026-05-03 21:52 -32.82665 -70.69959 14214 ft 299 kts 250°
2026-05-03 21:52 -32.83764 -70.72067 13522 ft 305 kts 232°
2026-05-03 21:53 -32.85312 -70.73820 12773 ft 308 kts 226°
2026-05-03 21:53 -32.86887 -70.75540 12101 ft 307 kts 226°
2026-05-03 21:53 -32.88452 -70.77258 11457 ft 305 kts 226°
2026-05-03 21:53 -32.90001 -70.78965 10786 ft 302 kts 225°
2026-05-03 21:54 -32.91704 -70.80432 10139 ft 304 kts 210°
2026-05-03 21:54 -32.93689 -70.81314 9550 ft 307 kts 193°
2026-05-03 21:54 -32.95802 -70.81666 9177 ft 306 kts 188°
2026-05-03 21:54 -32.97894 -70.81975 8645 ft 301 kts 188°
2026-05-03 21:55 -32.99957 -70.82283 7997 ft 297 kts 186°
2026-05-03 21:55 -33.02012 -70.82295 7369 ft 293 kts 178°
2026-05-03 21:55 -33.04032 -70.82196 6809 ft 288 kts 177°
2026-05-03 21:55 -33.06016 -70.82093 6290 ft 283 kts 177°
2026-05-03 21:56 -33.07956 -70.81985 6024 ft 275 kts 176°
2026-05-03 21:56 -33.09815 -70.81878 5999 ft 258 kts 177°
2026-05-03 21:56 -33.11552 -70.81777 6003 ft 242 kts 177°
2026-05-03 21:56 -33.13212 -70.81681 6006 ft 237 kts 176°
2026-05-03 21:57 -33.14825 -70.81583 5843 ft 230 kts 176°
2026-05-03 21:57 -33.16400 -70.81487 5526 ft 221 kts 177°
2026-05-03 21:57 -33.17896 -70.81404 5258 ft 209 kts 177°
2026-05-03 21:57 -33.19303 -70.81329 4987 ft 196 kts 177°
2026-05-03 21:58 -33.20624 -70.81258 4730 ft 185 kts 177°
2026-05-03 21:58 -33.21869 -70.81192 4486 ft 174 kts 178°
2026-05-03 21:58 -33.23024 -70.81130 4277 ft 159 kts 178°
2026-05-03 21:58 -33.24095 -70.81073 4073 ft 151 kts 178°
2026-05-03 21:59 -33.25124 -70.81018 3882 ft 145 kts 178°
2026-05-03 21:59 -33.26129 -70.80954 3706 ft 143 kts 179°
2026-05-03 21:59 -33.27125 -70.80904 3495 ft 143 kts 179°
2026-05-03 21:59 -33.28126 -70.80843 3286 ft 144 kts 179°
2026-05-03 22:00 -33.29121 -70.80799 3100 ft 143 kts 179°
2026-05-03 22:00 -33.30105 -70.80751 2922 ft 140 kts 180°
2026-05-03 22:00 -33.31072 -70.80700 2737 ft 138 kts 179°
2026-05-03 22:00 -33.32032 -70.80650 2564 ft 138 kts 179°
2026-05-03 22:01 -33.32995 -70.80597 2411 ft 139 kts 179°
2026-05-03 22:01 -33.33965 -70.80546 2230 ft 139 kts 179°
2026-05-03 22:01 -33.34933 -70.80493 2011 ft 138 kts 178°
2026-05-03 22:01 -33.35882 -70.80442 1852 ft 135 kts 178°
2026-05-03 22:02 -33.36819 -70.80394 1677 ft 134 kts 177°
2026-05-03 22:02 -33.37728 -70.80347 1579 ft 121 kts 176°
2026-05-03 22:02 -33.38441 -70.80307 1573 ft 79 kts 177°
2026-05-03 22:02 -33.38851 -70.80284 1574 ft 47 kts 178°
2026-05-03 22:03 -33.39110 -70.80271 1574 ft 33 kts 178°
2026-05-03 22:03 -33.39313 -70.80211 1572 ft 27 kts 155°
2026-05-03 22:03 -33.39432 -70.80122 1568 ft 16 kts 146°
2026-05-03 22:03 -33.39519 -70.80055 1566 ft 14 kts 152°
2026-05-03 22:04 -33.39615 -70.80036 1566 ft 14 kts 178°
2026-05-03 22:04 -33.39708 -70.80033 1566 ft 13 kts 178°
2026-05-03 22:04 -33.39796 -70.80029 1566 ft 12 kts 178°
2026-05-03 22:04 -33.39848 -70.79981 1566 ft 11 kts 91°
2026-05-03 22:05 -33.39844 -70.79889 1565 ft 11 kts 89°
2026-05-03 22:05 -33.39862 -70.79810 1565 ft 9 kts 141°
2026-05-03 22:05 -33.39914 -70.79802 1565 ft 3 kts 177°
2026-05-03 22:05 -33.39925 -70.79801 1565 ft 1 kts 177°
2026-05-03 22:06 -33.39928 -70.79801 1565 ft 0 kts 177°